CUTE-1.7+APD II (CO-65)

Last updated on Thu Oct 30 2025 00:03:10 GMT+0000 (Coordinated Universal Time)

1 32785U 08021C 25302.47304255 .00009450 00000+0 64748-3 0 9997 2 32785 97.8040 274.9732 0011492 91.2418 269.0125 15.06225071950425
UTC large
Height (km)
Speed (km/s)
/
Latitude / Longitude
Inclination (degrees)
Orbital Period (minutes)
Azimuth
Elevation
Range (km)
Doppler Factor

Next 0 passes for location: London (51.5072 / 0.1276)

Sorry there are no passes over London.